Weather History for KTTD - March, 2013

Change the Weather History Date:

Monday, March 4, 2013

  Actual Average Record
Temperature  
Mean Temperature 42 °F 45 °F  
Max Temperature 55 °F 54 °F 67 °F (1986)
Min Temperature 28 °F 37 °F 23 °F (1989)
Degree Days  
Heating Degree Days 23 20  
Month to date heating degree days 69 80  
Cooling Degree Days 0 0  
Month to date cooling degree days 0 0  
Moisture  
Dew Point 28 °F    
Average Humidity 65    
Maximum Humidity 92    
Minimum Humidity 38    
Precipitation  
Precipitation 0.00 in 0.16 in 0.91 in (1983)
Month to date precipitation 0.09 0.63  
Year to date precipitation 4.84 11.90  
Snow  
Snow 0.00 in - - ()
Month to date snowfall 0.0  
Snow Depth 0.00 in    
Sea Level Pressure  
Sea Level Pressure 30.08 in    
Wind  
Wind Speed 14 mph (East)    
Max Wind Speed 24 mph    
Max Gust Speed 33 mph    
Visibility 10 miles    
Events      
T = Trace of Precipitation, MM = Missing Value Source: NWS Daily Summary

Daily Weather History Graph

Daily Weather History Graph

Search for Another Location

Airport or City:

Trip Planner

Search our weather history database for the weather conditions in past years. The results will help you decide how hot, cold, wet, or windy it might be!

Date:

Astronomy

Mar. 04, 2013 Rise Set
Actual Time 6:41 AM PST 6:01 PM PST
Civil Twilight 6:12 AM PST 6:30 PM PST
Nautical Twilight 5:38 AM PST 7:05 PM PST
Astronomical Twilight 5:03 AM PST 7:39 PM PST
Moon 1:09 AM PST (3/4) 10:35 AM PST (3/4)
Length of Visible Light 12h 18m
Length of Day
11h 19m
Waning Gibbous, 51% of the Moon is Illuminated
Mar 4
Waning Gibbous
Mar 4
Last Quarter
Mar 11
New
Mar 19
First Quarter
Mar 27
Full

Hourly Weather History & Observations

Time (PST) Temp. Windchill Dew Point Humidity Pressure Visibility Wind Dir Wind Speed Gust Speed Precip Events Conditions
12:53 AM 33.1 °F 30.0 °F 30.0 °F 89% 30.26 in 10.0 mi East 3.5 mph - N/A   Clear
1:53 AM 30.9 °F - 28.9 °F 92% 30.24 in 10.0 mi Calm Calm - N/A   Clear
2:53 AM 30.0 °F - 27.0 °F 88% 30.22 in 10.0 mi Calm Calm - N/A   Clear
3:53 AM 35.1 °F 30.1 °F 30.9 °F 85% 30.21 in 10.0 mi NE 5.8 mph - N/A   Clear
4:53 AM 34.0 °F 28.8 °F 30.0 °F 85% 30.20 in 10.0 mi NNE 5.8 mph - N/A   Clear
5:53 AM 36.0 °F 27.5 °F 28.9 °F 76% 30.19 in 10.0 mi East 12.7 mph 18.4 mph N/A   Clear
6:53 AM 37.9 °F 29.2 °F 28.0 °F 68% 30.16 in 10.0 mi East 15.0 mph - N/A   Clear
7:53 AM 39.0 °F 29.3 °F 27.0 °F 62% 30.15 in 10.0 mi East 19.6 mph 27.6 mph N/A   Clear
8:53 AM 42.1 °F 33.3 °F 28.0 °F 58% 30.14 in 10.0 mi East 19.6 mph 26.5 mph N/A   Clear
9:53 AM 45.0 °F 37.1 °F 28.9 °F 53% 30.11 in 10.0 mi East 19.6 mph 29.9 mph N/A   Clear
10:53 AM 48.0 °F - 28.9 °F 48% 30.10 in 10.0 mi East 20.7 mph 27.6 mph N/A   Clear
11:53 AM 50.0 °F - 28.0 °F 43% 30.09 in 10.0 mi East 18.4 mph - N/A   Clear
12:53 PM 52.0 °F - 28.0 °F 40% 30.06 in 10.0 mi East 19.6 mph - N/A   Clear
1:53 PM 54.0 °F - 28.9 °F 38% 30.03 in 10.0 mi East 19.6 mph 25.3 mph N/A   Clear
2:53 PM 54.0 °F - 28.0 °F 37% 30.00 in 10.0 mi East 20.7 mph 26.5 mph N/A   Clear
3:53 PM 54.0 °F - 28.0 °F 37% 29.99 in 10.0 mi East 18.4 mph 24.2 mph N/A   Clear
4:53 PM 52.0 °F - 27.0 °F 38% 29.96 in 10.0 mi East 16.1 mph - N/A   Clear
5:53 PM 50.0 °F - 26.1 °F 39% 29.96 in 10.0 mi East 15.0 mph 25.3 mph N/A   Clear
6:53 PM 48.9 °F - 26.1 °F 41% 29.96 in 10.0 mi East 16.1 mph - N/A   Clear
7:53 PM 48.0 °F - 25.0 °F 41% 29.94 in 10.0 mi East 13.8 mph 21.9 mph N/A   Clear
8:53 PM 46.9 °F - 24.1 °F 41% 29.94 in 10.0 mi East 13.8 mph - N/A   Clear
9:53 PM 46.9 °F - 24.1 °F 41% 29.93 in 10.0 mi East 16.1 mph - N/A   Clear
11:53 PM 46.0 °F 38.5 °F 24.1 °F 42% 29.92 in 10.0 mi East 19.6 mph - N/A   Clear